Flag for Germany Weather past 2 weeks in Schwerin, Mecklenburg-Western Pomerania, Germany

Now
57 °F

Overcast.


Feels Like: 55 °F
Forecast: 40 / 50 °F
Wind: 8 mph from Southwest

Location: Schwerin


UV Index: 0 (Low)

Visibility: 22 mi


Pressure: 29.93 "Hg

Humidity: 37%

Dew point: 31 °F

Location of SchwerinLocation

Historic Weather in Schwerin

°F

Schwerin temperature yesterday

Maximum temperature yesterday: 59 °F (at 5:00 PM)
Minimum temperature yesterday: 38 °F (at 6:00 AM)
Average temperature yesterday: 48 °F

Past Weeks' High & Low Weather Summary

 TemperatureHumidityPressure
High65 °F (Apr 7, 6:00 PM)100% (Apr 6, 3:00 AM)30.47 "Hg (Apr 6, 3:00 AM)
Low35 °F (Apr 16, 6:00 AM)35% (Apr 17, 5:00 PM)29.65 "Hg (Apr 14, 7:00 AM)
Average49 °F78%29.98 "Hg
* Reported Apr 2 6:00 PM — Apr 17 6:00 PM, Schwerin, Weather by CustomWeather, © 2014

Note: Actual official high and low records may vary slightly from our data, if they occured in-between our weather recording intervals... More about our weather records

Advertising

Historic Weather Conditions — Data for Previous 24 hours

 ConditionsComfort  
Time TempWeatherWind HumidityBarometerVisibility
6:00 PM
Apr 17
57 °FOvercast.8 mph37%29.93 "Hg22 mi
5:00 PM59 °FOvercast.7 mph35%29.96 "Hg12 mi
4:00 PM59 °FOvercast.8 mph38%30.01 "Hg9 mi
3:00 PM58 °FOvercast.7 mph36%30.05 "Hg11 mi
2:00 PM57 °FOvercast.8 mph39%30.09 "Hg14 mi
1:00 PM56 °FOvercast.8 mph40%30.14 "Hg14 mi
12:00 PM54 °FOvercast.6 mph45%30.18 "Hg19 mi
11:00 AM52 °FPartly sunny.8 mph43%30.22 "Hg18 mi
10:00 AM49 °FScattered clouds.7 mph48%30.24 "Hg14 mi
9:00 AM46 °FPassing clouds.6 mph59%30.26 "Hg11 mi
8:00 AM40 °FSunny.6 mph68%30.27 "Hg16 mi
7:00 AM38 °FScattered clouds.5 mph72%30.29 "Hg22 mi
6:00 AM38 °FPassing clouds.5 mph77%30.30 "Hg25 mi
4:00 AM40 °FOvercast.6 mph75%30.33 "Hg31 mi
3:00 AM40 °FOvercast.5 mph73%30.34 "Hg28 mi
2:00 AM42 °FOvercast.3 mph69%30.36 "Hg25 mi
1:00 AM42 °FOvercast.2 mph91%30.37 "Hg16 mi
12:00 AM42 °FOvercast.1 mph87%30.38 "Hg14 mi
Weather by CustomWeather, © 2014

See weather overview